1998-067MV

Last updated on Fri Aug 04 2017 00:15:03 GMT+0000 (Coordinated Universal Time)

1 42821U 98067MV 17215.28146560 .00007682 00000-0 11786-3 0 9994 2 42821 51.6388 163.3793 0004377 67.3952 292.7502 15.55353347 4186
UTC large
Height (km)
Speed (km/s)
/
Latitude / Longitude
Inclination (degrees)
Orbital Period (minutes)
Azimuth
Elevation
Range (km)
Doppler Factor

Next 0 passes for location: London (51.5072 / 0.1276)

Sorry there are no passes over London.